SL-12 R/B(2)

Last updated on Sat Apr 13 2024 01:02:09 GMT+0100 (British Summer Time)

1 15772U 85042D 24103.48222223 .00000026 00000+0 33317-4 0 9994 2 15772 71.1055 118.2122 0033610 131.7659 336.8029 14.21589031 15433
UTC large
Height (km)
Speed (km/s)
/
Latitude / Longitude
Inclination (degrees)
Orbital Period (minutes)
Azimuth
Elevation
Range (km)
Doppler Factor

Next 0 passes for location: London (51.5072 / 0.1276)

Sorry there are no passes over London.